Regional Weather Roundup
Issued by NWS

Home | Current Version | Previous Version | Graphics & Text | Print | Product List | Glossary Off
Versions: 1 2 3 4 5 6 7 8 9 10 11 12 13 14 15 16 17 18 19 20 21 22 23 24 25 26 27 28 29 30 31 32 33 34 35 36 37 38 39 40 41 42 43 44 45 46 47 48 49 50

000
ASUS43 KDMX 020207
RWRIA

WEATHER ROUNDUP FOR IOWA
NATIONAL WEATHER SERVICE DES MOINES IA
900 PM CDT WED JUL 01 2015

NOTE: "FAIR" INDICATES FEW OR NO CLOUDS BELOW 12,000 FEET WITH NO
SIGNIFICANT WEATHER AND/OR OBSTRUCTIONS TO VISIBILITY.

* - THESE STATIONS ARE NOT NWS STATIONS...THUS NOT UNDER NWS
QUALITY CONTROL.  THEY ALSO DO NOT REPORT WEATHER SUCH
AS PRECIPITATION OR FOG.

IAZ001>003-012>014-020>022-031>034-043>046-020300-
   NORTHWEST IOWA

CITY           SKY/WX    TMP DP  RH WIND       PRES   REMARKS
CARROLL *      CLOUDY    68  61  77 NE8       29.95R
CHEROKEE *     MOCLDY    67  56  69 E7        29.95F
DENISON *      CLOUDY    70  64  83 NE8       29.92S
LE MARS *      CLEAR     70  61  73 E8G14     29.95S
ORANGE CITY *  CLEAR     66  55  68 E7        29.95S
SHELDON *      CLEAR     66  57  72 E6        29.96S
SIOUX CITY     CLOUDY    73  63  70 E9        29.92S
SPENCER        CLOUDY    65  55  70 E7        29.98S
STORM LAKE *   CLOUDY    66  57  72 E9        29.98R
$$

IAZ055>058-069>071-079>083-090>094-020300-
   SOUTHWEST IOWA

CITY           SKY/WX    TMP DP  RH WIND       PRES   REMARKS
ATLANTIC *     CLOUDY    72  66  83 NE6       29.92R
AUDUBON *      PTCLDY    70  63  78 E7        29.95R
CLARINDA *     PTCLDY    73  70  88 NE7G14    29.90R
COUNCIL BLFS * CLEAR     73  68  83 E14       29.90S
CRESTON *      MOCLDY    70  64  83 E12       29.91S
HARLAN  *      MOCLDY    70  70 100 NE8G14    29.96R
LAMONI         MOCLDY    71  66  84 NE10      29.89R
RED OAK *      MOCLDY    73  68  83 NE13G20   29.89S
SHENANDOAH *   CLOUDY    77  70  78 E13       29.87S
$$

IAZ047>049-059>061-072>074-084-020300-
   CENTRAL IOWA

CITY           SKY/WX    TMP DP  RH WIND       PRES   REMARKS
AMES           MOCLDY    65  56  72 NE7       29.95R
ANKENY *       CLOUDY    66  59  77 NE5       29.93S
CHARITON *     MOCLDY    68  63  83 NE9       29.91S
DES MOINES     CLOUDY    71  57  61 E9        29.92S
GRINNELL*      MOCLDY    64  59  82 NE8       29.95S
KNOXVILLE *    CLOUDY    70  59  68 NE9       29.91S
MARSHALLTOWN   MOCLDY    63  56  78 NE9       29.96R
PELLA *        MOCLDY    68  61  77 E6        29.94S
PERRY *        CLOUDY    67  57  68 E6        29.94S
$$

IAZ004>006-015-016-023>025-035-036-020300-
   NORTH CENTRAL IOWA

CITY           SKY/WX    TMP DP  RH WIND       PRES   REMARKS
ALGONA *       CLEAR     63  55  77 NE6       30.00R
CLARION *      MOCLDY    61  55  82 E7        29.98S
ESTHERVILLE    CLOUDY    62  55  77 E7        29.99S
FORT DODGE *   CLEAR     63  52  67 NE8       29.98S
MASON CITY     CLEAR     58  53  84 E6        30.01R
FOREST CITY *  MOCLDY    59  54  82 CALM      30.00R
IOWA FALLS *     N/A     63  57  82 NE6       29.99S
$$

IAZ007>011-017>019-026>030-037>042-050>054-066-020300-
   NORTHEAST IOWA

CITY           SKY/WX    TMP DP  RH WIND       PRES   REMARKS
CEDAR RAPIDS   CLOUDY    64  57  78 NE12      29.94F
CHARLES CITY * CLEAR     59  55  88 NE6       30.00S
CLINTON *      CLOUDY    63  55  77 NE7       29.99R
DECORAH *        N/A    N/A N/A N/A MISG        N/A
DUBUQUE        MOCLDY    61  51  70 NE8       29.98S
MONTICELLO *   CLOUDY    63  57  82 NE6       29.97S
OELWEIN *        N/A     61  55  82 NE6       29.99S
WATERLOO       CLOUDY    62  55  77 NE7       29.96S
$$

IAZ064-065-067-068-078-020300-
   EAST CENTRAL IOWA

CITY           SKY/WX    TMP DP  RH WIND       PRES   REMARKS
DAVENPORT      CLOUDY    65  58  78 NE9       29.95F
IOWA CITY      CLOUDY    67  58  72 NE8       29.95S
MT. PLEASANT * LGT RAIN  69  57  64 NE7       29.92F
MUSCATINE *    CLOUDY    70  57  64 NE10      29.93F
QUAD CITIES    MOCLDY    69  55  60 NE9       29.93F
$$

IAZ062-063-075>077-085>089-095>099-020300-
   SOUTHEAST IOWA

CITY           SKY/WX    TMP DP  RH WIND       PRES   REMARKS
BURLINGTON     CLOUDY    70  64  81 NE9       29.90F
FAIRFIELD *    CLOUDY    66  59  77 NE8       29.92F
FORT MADISON * CLEAR     68  64  88 NE6       29.91S
KEOKUK *       MOCLDY    72  66  83 NE9       29.88S
OSKALOOSA *    CLOUDY    68  61  78 NE5       29.92F
CENTERVILLE *    N/A     68  64  88 NE8       29.91S
OTTUMWA        CLOUDY    68  61  78 E9        29.90F
WASHINGTON *   CLOUDY    68  61  77 NE7       29.94F
$$

ABBREVIATIONS USED IN REMARKS
   TC - TEMPERATURES IN CELSIUS
  WCI - WIND CHILL INDEX
   HX - HEAT INDEX
  VSB - VISIBILITY
$$




USA.gov is the U.S. government's official web portal to all federal, state and local government web resources and services.